Regional Weather Roundup
Issued by NWS San Angelo, TX

Home | Current Version | Previous Version | Text Only | Print | Product List | Glossary On
Versions: 1 2 3 4 5 6 7 8 9 10 11 12 13 14 15 16 17 18 19 20 21 22 23 24 25 26 27 28 29 30 31 32 33 34 35 36 37 38 39 40 41 42 43 44 45 46 47 48 49 50
000
ASUS44 KSJT 310411
RWRSJT
WEST CENTRAL TEXAS REGIONAL WEATHER ROUNDUP
NATIONAL WEATHER SERVICE SAN ANGELO TX
1100 PM CDT TUE AUG 30 2016

NOTE: "FAIR" INDICATES FEW OR NO CLOUDS BELOW 12,000 FEET WITH NO
SIGNIFICANT WEATHER AND/OR OBSTRUCTIONS TO VISIBILITY.

TXZ049-054-064>066-071>073-076>078-098-099-113-114-127-128-139-140-
154-155-168>170-310500
...LOCATIONS ACROSS WEST CENTRAL TEXAS...

CITY           SKY/WX    TMP DP  RH WIND       PRES   REMARKS
SAN ANGELO     CLOUDY    78  68  71 CALM      30.08R
ABILENE        CLEAR     75  68  78 E3        30.09S
DYESS AFB      PTCLDY    77  67  71 E5        30.09R
JUNCTION       CLOUDY    78  67  68 E5        30.07R
SWEETWATER     PTCLDY    75  66  75 S5        30.16R
BROWNWOOD      CLOUDY    75  70  83 CALM      30.07S
COLEMAN        CLOUDY    77  67  70 SE5       30.10R
SONORA         CLOUDY    75  70  83 N6        30.13R
OZONA          FAIR      75  64  69 CALM      30.13R
BRADY          NOT AVBL
$$

TEXAS PANHANDLE/OKLAHOMA PANHANDLE

CITY           SKY/WX    TMP DP  RH WIND       PRES   REMARKS
AMARILLO       PTCLDY    65  63  93 NE5       30.24R
BORGER         PTCLDY    65  64  97 W3        30.22R
CANADIAN       PTCLDY    67  67  97 CALM      30.18S
DALHART        MOCLDY    67  63  87 NE6       30.27R
DUMAS          CLOUDY    63  62  95 SE3       30.25R
GUYMON         NOT AVBL
HEREFORD       CLOUDY    68  66  94 CALM      30.24S
PAMPA          CLOUDY    66  63  91 SE3       30.23R
PERRYTON       PTCLDY    68  66  93 N5        30.20S
$$

SOUTHERN PANHANDLE/SOUTH PLAINS/ROLLING PLAINS

CITY           SKY/WX    TMP DP  RH WIND       PRES   REMARKS
LUBBOCK        RAIN      66  65  96 N5        30.21S FOG
SNYDER           N/A     76  68  76 NE7       30.15R
CHILDRESS        N/A    N/A N/A N/A MISG      30.13S
SEMINOLE       CLOUDY    67  66  97 CALM      30.20S
$$

PERMIAN BASIN

CITY           SKY/WX    TMP DP  RH WIND       PRES   REMARKS
MIDLAND        LGT RAIN  73  68  84 VRB5      30.16R
ODESSA         LGT RAIN  71  66  84 NE12      30.17R
WINK           PTCLDY    70  68  93 N7        30.12R
$$

FAR WEST/SOUTHWEST MOUNTAINS/TRANS PECOS

CITY           SKY/WX    TMP DP  RH WIND       PRES   REMARKS
ALPINE         CLOUDY    67  65  94 NE6       30.27R
DRYDEN           N/A     73  71  93 CALM      30.08R
EL PASO        MOCLDY    71  63  75 E7        30.17R
FORT STOCKTON  MOCLDY    69  67  93 NW5       30.14R
GUADALUPE PASS CLOUDY    62  62 100 NE24      30.27S FOG
MARFA          CLOUDY   N/A N/A N/A NE6       30.24R
PECOS          CLOUDY    70  67  92 NW5       30.13R
$$

DALLAS/FORT WORTH METROPLEX

CITY           SKY/WX    TMP DP  RH WIND       PRES   REMARKS
DFW AIRPORT    MOCLDY    84  70  62 CALM      30.01R
FTW MEACHAM    PTCLDY    81  72  74 NW3       30.02R
DAL-EXECUTIVE  PTCLDY    80  74  81 CALM      30.01R
GRAND PRAIRIE  CLEAR     84  70  61 CALM      30.02S
ADDISON        CLEAR     84  73  69 NE3       30.03R
MESQUITE       PTCLDY    80  74  80 CALM      30.00S
LANCASTER      PTCLDY    78  74  86 CALM      30.01S
$$

NORTH CENTRAL TEXAS

CITY           SKY/WX    TMP DP  RH WIND       PRES   REMARKS
SHRMAN/DENISON CLEAR     77  75  93 CALM      30.04R
GAINESVILLE      N/A     76  70  81 CALM      30.06R
BRIDGEPORT     CLEAR     75  75 100 CALM      30.05S
DENTON         PTCLDY    79  73  82 N3        30.02R
WAXAHACHIE     PTCLDY    78  73  85 CALM      30.02S
GRANBURY       CLEAR     77  72  85 W3        30.04S
$$

WESTERN NORTH TEXAS

CITY           SKY/WX    TMP DP  RH WIND       PRES   REMARKS
WICHITA FALLS  MOCLDY    78  68  71 CALM      30.05S
VERNON         CLOUDY    74  68  80 N6        30.09S
BRECKENRIDGE   CLEAR     77  69  77 CALM      30.06S
COMANCHE       CLOUDY    75  69  81 S3        30.07R
$$

CENTRAL AND SOUTH CENTRAL TEXAS

CITY           SKY/WX    TMP DP  RH WIND       PRES   REMARKS
AUSTIN/BERGSTM CLOUDY    78  72  81 NE5       29.98R
WACO           PTCLDY    78  72  81 NW5       30.00R
HILLSBORO      PTCLDY    77  73  87 CALM      30.01S
TEMPLE         CLEAR     74  73  97 NW5       30.01R
KILLEEN-GRAY   CLOUDY    75  72  90 VRB5      30.01S
FORT HOOD      CLOUDY    74  70  87 NW5       30.00R
GEORGETOWN     PTCLDY    75  70  83 N6        30.01R
LAGO VISTA     MOCLDY    77  69  77 N6        30.03S
SAN MARCOS     CLOUDY    73  70  88 SW3       30.03R THUNDER
NEW BRAUNFELS  RAIN      77  74  90 S9        29.98R FOG
RANDOLPH AFB   MOCLDY    77  77 100 SE3       30.00R
SAN ANTONIO    CLOUDY    79  71  76 CALM      30.00R
STINSON        PTCLDY    78  74  87 E3        29.97R
PLEASANTON     NOT AVBL
LA GRANGE      CLOUDY    78  75  91 CALM      29.96R
GIDDINGS       CLOUDY    77  72  85 CALM      30.02R
$$

EAST TEXAS

CITY           SKY/WX    TMP DP  RH WIND       PRES   REMARKS
PARIS          CLEAR     77  72  83 NE6       30.02S
CLARKSVILLE    NOT AVBL
TYLER          CLEAR     81  74  79 CALM      29.99R
LONGVIEW       CLEAR     78  75  90 N3        29.97R
PALESTINE      CLEAR     76  75  97 CALM      29.99S
NACOGDOCHES    CLEAR    N/A N/A N/A N3        29.95S
$$

TEXAS HILL COUNTRY AND EDWARDS PLATEAU

CITY           SKY/WX    TMP DP  RH WIND       PRES   REMARKS
LLANO          CLOUDY    77  77 100 CALM      30.07S
HORSESHOE BAY  FAIR      74  71  89 CALM      30.03R
KERRVILLE      CLOUDY    76  72  85 CALM      30.05S
FREDERICKSBRG  CLOUDY    76  68  75 CALM      30.06S
ROCKSPRINGS    CLOUDY    73  70  88 CALM      30.11S
HONDO          CLOUDY    76  72  87 N5        30.01R
UVALDE         CLOUDY    74  72  93 CALM      30.03R
DEL RIO        CLOUDY    75  73  93 NW3       30.02R
$$

SOUTHEAST TEXAS

CITY           SKY/WX    TMP DP  RH WIND       PRES   REMARKS
COLLEGE STN    PTCLDY    76  74  93 NW3       29.97S
CALDWELL       PTCLDY    73  73 100 CALM      30.00S
CROCKETT       PTCLDY    77  75  94 CALM      30.00S
BRENHAM        MOCLDY    79  74  83 CALM      29.97S
HUNTSVILLE     MOCLDY    80  75  84 CALM      29.96S
CONROE         PTCLDY    77  75  93 N3        29.95S
HOUSTON BUSH   CLOUDY    82  73  74 CALM      29.94R
HOUSTON HOBBY  CLOUDY    82  73  74 NW3       29.92S
PERLAND        CLOUDY    83  74  74 CALM      29.94R
WHARTON        PTCLDY    76  74  94 CALM      29.95S
$$

THE UPPER TEXAS COAST

CITY           SKY/WX    TMP DP  RH WIND       PRES   REMARKS
ORANGE         CLOUDY    77  76  97 CALM      29.94R
PORT ARTHUR    PTCLDY    79  76  90 CALM      29.92R
GALVESTON      CLOUDY    82  78  88 N3        29.93R
ANGLETON       MOCLDY    80  77  90 CALM      29.93R
BAY CITY       MOCLDY    78  76  95 NW3       29.94S
$$

TEXAS COASTAL BEND, RIO GRANDE PLAINS DEEP SOUTH TEXAS

CITY           SKY/WX    TMP DP  RH WIND       PRES   REMARKS
VICTORIA       PTCLDY    73  72  96 NW3       29.95R
BEEVILLE       FAIR      76  75  98 N3        29.95R
ROCKPORT       NOT AVBL
PORT ARANSAS   CLOUDY    79  77  93 NE5       29.92R
PORT LAVACA    MOCLDY    76  75  98 CALM      29.94R
CORPUS CHRISTI MOCLDY    78  76  93 NE6       29.92S
KINGSVILLE NAS MOCLDY    77  76  96 N6        29.91F
COTULLA        CLEAR     77  72  84 NE3       29.98R
LAREDO         PTCLDY    79  73  82 NE7       29.97R
BROWNSVILLE    CLEAR     82  76  81 E8        29.88R
PORT ISABEL    CLOUDY    83  76  79 E15G21    29.87R
HEBBRONVILLE   CLEAR     75  72  88 CALM      29.96R
MCALLEN        CLOUDY    82  75  79 NE10      29.89R
WESLACO        PTCLDY    73  56  54 NE5       29.88R
FALFURRIAS     MOCLDY    77  72  86 NE5       29.91S
EDINBURG       CLOUDY    80  75  85 NE6       29.90R
$$




USA.gov is the U.S. government's official web portal to all federal, state and local government web resources and services.